Skip Page Navigation
NASA JPL Caltech
NASA Logo - Jet Propulsion Laboratory + View the NASA Portal
+ Center for Near-Earth Object Studies
JPL Home Earth Solar System Stars & Galaxies Technology
JPL Solar System Dynamics
BODIES ORBITS EPHEMERIDES TOOLS PHYSICAL DATA DISCOVERY FAQ SITE MAP
IMPORTANT: The SSD Announcement email list is now available. Major changes are coming in the near future, including possible hostname and/or URL changes. To be notified of such changes, subscribe to this email list.

Please visit this page for more details.


JPL Small-Body Database Browser
Search: [ help ]  
48136 (2001 FO141)
Classification: Main-belt Asteroid          SPK-ID: 2048136
Ephemeris | Orbit Diagram | Orbital Elements | Mission Design | Physical Parameters | Discovery Circumstances | Close-Approach Data ]

[ show orbit diagram ]
Orbital Elements at Epoch 2459000.5 (2020-May-31.0) TDB
Reference: JPL 18 (heliocentric ecliptic J2000)
 Element Value Uncertainty (1-sigma)   Units 
e .09715088850849425 3.4477e-08  
a 2.572082308906162 1.1276e-08 au
q 2.322202227278949 8.7839e-08 au
i 4.496868896995094 3.857e-06 deg
node 138.6655065272502 5.943e-05 deg
peri 177.190753954106 6.438e-05 deg
M 118.6110992445377 2.6004e-05 deg
tp 2458504.080822885074
(2019-Jan-20.58082289)
0.00010791 TDB
period 1506.696294863007
4.13
9.9082e-06
2.713e-08
d
yr
n .2389333545369422 1.5712e-09 deg/d
Q 2.821962390533375 1.2372e-08 au
  Orbit Determination Parameters
   # obs. used (total)      873  
   data-arc span      7849 days (21.49 yr)  
   first obs. used      1998-08-01  
   last obs. used      2020-01-27  
   planetary ephem.      DE431  
   SB-pert. ephem.      SB431-N16  
   condition code      0  
   norm. resid. RMS      .56141  
   source      ORB  
   producer      Otto Matic  
   solution date      2020-Feb-23 09:00:49  

Additional Information
 Earth MOID = 1.30855 au 
 Jupiter MOID = 2.41051 au 
 T_jup = 3.418 
[ hide covariance matrix ]
Orbital Elements at Epoch 2457208.5 (2015-Jul-05.0) TDB
Reference: JPL 18 (heliocentric ecliptic J2000)
 Element Value Uncertainty (1-sigma)   Units 
e .09867829676261884 3.4492e-08  
q 2.317711148468864 8.8013e-08 au
tp 2456997.834481180547
(2014-Dec-06.33448118)
0.00010382 TDB
node 138.7428132083036 5.9399e-05 deg
peri 177.1356258440448 6.4194e-05 deg
i 4.498277040327457 3.8589e-06 deg
  Orbit Determination Parameters
   # obs. used (total)      873  
   data-arc span      7849 days (21.49 yr)  
   first obs. used      1998-08-01  
   last obs. used      2020-01-27  
   planetary ephem.      DE431  
   SB-pert. ephem.      SB431-N16  
   condition code      0  
   norm. resid. RMS      .56141  
   source      ORB  
   producer      Otto Matic  
   solution date      2020-Feb-23 09:00:49  

Additional Information
 Jupiter MOID = 2.41051 au 
 T_jup = 3.418 
Orbit Covariance (6×6)
  e q tp node peri i
e 1.189699919764862E-15 -3.015809288217366E-15 1.610883135912893E-13 -4.15020771406327E-15 1.740611452828593E-14 -4.058389568224232E-16
q -3.015809288217366E-15 7.746228571016142E-15 -2.244056773176994E-13 1.31610389283175E-14 6.956054747444644E-17 1.163274126832056E-15
tp 1.610883135912893E-13 -2.244056773176994E-13 1.077905308206051E-8 3.928602801970048E-11 2.553956119185356E-9 -3.968821486517464E-12
node -4.15020771406327E-15 1.31610389283175E-14 3.928602801970048E-11 3.528283691990205E-9 -3.50767339500271E-9 8.376475349945367E-13
peri 1.740611452828593E-14 6.956054747444644E-17 2.553956119185356E-9 -3.50767339500271E-9 4.120820153703034E-9 -1.783790463618116E-12
i -4.058389568224232E-16 1.163274126832056E-15 -3.968821486517464E-12 8.376475349945367E-13 -1.783790463618116E-12 1.489074129662984E-11

Ephemeris | Orbit Diagram | Orbital Elements | Mission Design | Physical Parameters | Discovery Circumstances | Close-Approach Data ]

Physical Parameter Table
Parameter Symbol Value Units Sigma Reference Notes
absolute magnitude H 15.3   n/a MPO400469  

48136 (2001 FO141)          Discovered 2001-Mar-23 by LONEOS at Anderson Mesa
Reference: 20020921/Numbers.arcLast Updated: 2004-04-19

[ show close-approach data ]
Alternate Designations
 2001 FO141 = 1940 ND = 1998 RV25 = 2000 AP163 
Ephemeris | Orbit Diagram | Orbital Elements | Mission Design | Physical Parameters | Discovery Circumstances | Close-Approach Data ]
ABOUT SSD CREDITS/AWARDS PRIVACY/COPYRIGHT GLOSSARY LINKS
FirstGov 2020-May-25 15:47 UT
(server date/time)  
NASA Home Page
Site Manager:   Ryan S. Park
Webmaster  Alan B. Chamberlin